Flag for Greenland Weather past 2 weeks in Danmarkshavn, Greenland

Now
20 °F

Snow. Overcast.


Feels Like: -1 °F
Forecast: 18 / 22 °F
Wind: 39 mph from Northwest

Location: Danmarkshavn

Current Time: Oct 2, 2014 at 3:16:34 AM

Latest Report: Oct 2, 2014 at 2:00 AM


Visibility: 0 mi

Pressure: 29.44 "Hg

Humidity: 93%

Dew point: 18 °F

Location of DanmarkshavnLocation

Historic Weather in Danmarkshavn — Graph

°F

Danmarkshavn temperature yesterday

Maximum temperature yesterday: 19 °F (at 11:00 PM)
Minimum temperature yesterday: 15 °F (at 4:00 PM)
Average temperature yesterday: 17 °F

Past Weeks' High & Low Weather Summary

 TemperatureHumidityPressure
High34 °F (Sep 18, 3:00 PM)100% (Sep 22, 4:00 PM)30.12 "Hg (Sep 22, 4:00 PM)
Low9 °F (Sep 29, 8:00 AM)39% (Sep 30, 10:00 AM)29.44 "Hg (Oct 1, 11:00 PM)
Average23 °F70%29.81 "Hg
* Reported Sep 17 1:00 AM — Oct 2 1:00 AM, Danmarkshavn, Weather by CustomWeather, © 2014

Note: Actual official high and low records may vary slightly from our data, if they occured in-between our weather recording intervals... More about our weather records

Advertising

Danmarkshavn weather history for previous 24 hours

 ConditionsComfort  
Time TempWeatherWind HumidityBarometerVisibility
1:00 AM
Oct 2
20 °FSnow. Overcast.40 mph93%29.44 "Hg0 mi
12:00 AM19 °FSnow. Overcast.38 mph94%29.44 "Hg0 mi
11:00 PM
Oct 1
19 °FSnow. Overcast.38 mph93%29.44 "Hg0 mi
10:00 PM18 °FSnow. Overcast.36 mph94%29.47 "Hg0 mi
9:00 PM18 °FSnow. Overcast.36 mph93%29.47 "Hg0 mi
8:00 PM17 °FSnow. Overcast.43 mph94%29.50 "Hg0 mi
7:00 PM17 °FSnow. Overcast.41 mph94%29.50 "Hg0 mi
6:00 PM16 °FSnow. Cloudy.44 mph93%29.54 "Hg0 mi
5:00 PM17 °FSnow. Cloudy.43 mph94%29.56 "Hg0 mi
4:00 PM15 °FSnow. Cloudy.36 mph93%29.60 "Hg0 mi
3:00 PM16 °FSnow. Cloudy.38 mph93%29.59 "Hg0 mi
2:00 PM16 °FSnow. Cloudy.48 mph94%29.50 "Hg0 mi
1:00 PM15 °FSnow. Cloudy.53 mph94%29.55 "Hg0 mi
12:00 PM16 °FSnow. Cloudy.53 mph93%29.56 "Hg0 mi
11:00 AM17 °FSnow. Cloudy.46 mph93%29.60 "Hg0 mi
10:00 AM17 °FSnow. Cloudy.40 mph91%29.65 "Hg0 mi
9:00 AM16 °FSnow. Ice fog.37 mph90%29.70 "Hg0 mi
8:00 AM16 °FLight snow. Overcast.38 mph83%29.69 "Hg1 mi
7:00 AM16 °FDrizzle. Overcast.37 mph77%29.70 "Hg6 mi
6:00 AM17 °FOvercast.33 mph63%29.75 "Hg25 mi
5:00 AM17 °FOvercast.28 mph50%29.78 "Hg28 mi
4:00 AM17 °FOvercast.22 mph52%29.83 "Hg28 mi
3:00 AM16 °FOvercast.28 mph54%29.84 "Hg31 mi
Weather by CustomWeather, © 2014

See weather overviewHow to use our weather pages